Location: Newark
(47.5500°N, 8.6167°E)
Time: 20:01:21
(UTC+00:00)

Envisat - Pass Details

Date: 25 January 2020
Orbit: 764 x 766 km, 98.1° (Epoch: 22 February)

Event Time Altitude Azimuth Distance (km) Brightness Sun altitude
Rises 06:10:05 0° 14° (NNE) 3,244 6.2 -8.7°
Reaches altitude 10° 06:12:24 10° 16° (NNE) 2,313 5.5 -8.3°
Maximum altitude 06:17:31 79° 103° (ESE) 785 3.2 -7.5°
Drops below altitude 10° 06:22:35 10° 191° (S) 2,295 5.6 -6.7°
Sets 06:24:52 0° 192° (SSW) 3,217 6.4 -6.4°
